Location: ???????
(56.1500°N, 38.5000°E)
Time: 23:18:21
(UTC+00:00)

Daily predictions for brighter satellites

Satellite Brightness Start Highest point End
(mag) Time Altitude Azimuth Time Altitude Azimuth Time Altitude Azimuth
Aureole 3 Rocket 4.3 13:30:42 10° SSW 13:35:23 59° WNW 13:42:00 10° N
ARIANE 5 R/B 3.2 13:34:30 10° ESE 13:38:59 33° ENE 13:43:32 10° N
Cosmos 2208 Rocket 4.0 13:33:55 10° NNW 13:39:03 58° NE 13:44:09 10° SE
Cosmos 1782 4.2 13:36:46 10° SE 13:39:07 17° E 13:41:28 10° NE
ATLAS CENTAUR R/B 0.7 13:36:20 10° NW 13:39:38 89° NE 13:42:51 10° SE
H-2A R/B 3.7 13:37:41 10° N 13:41:06 32° WNW 13:44:25 10° SW
Meteor 2-1 Rocket 4.4 13:36:37 10° S 13:42:32 81° ESE 13:48:23 10° NNE
Cosmos 1758 Rocket 4.0 13:38:39 10° N 13:42:43 38° ENE 13:46:45 10° SE
Cosmos 1844 Rocket 4.2 13:39:19 10° NW 13:43:17 19° N 13:47:15 10° NE
NOSS 3-2 (A) 4.2 13:39:34 10° S 13:43:56 29° ESE 13:49:02 10° ENE
Lacrosse 4 Rocket 1.6 13:39:58 10° SSW 13:43:56 54° SE 13:47:51 10° NE
SL-16 R/B 3.0 13:38:45 10° NNE 13:44:41 42° E 13:50:31 10° SSE
CZ-2D R/B 4.1 13:46:23 10° ESE 13:48:44 20° ENE 13:51:06 10° NNE
Cosmos 2151 3.7 13:46:12 10° N 13:49:51 29° ENE 13:53:30 10° SE
Cosmos 2098 Rocket 4.3 13:46:32 10° SE 13:49:58 24° E 13:53:51 10° NNE
Cosmos 968 Rocket 4.1 13:44:58 10° SW 13:50:06 56° NW 13:55:18 10° NNE
Cosmos 1315 Rocket 3.1 13:46:49 10° S 13:50:29 45° E 13:54:10 10° NNE
Cosmos 2263 Rocket 3.0 13:46:05 10° NNW 13:51:08 31° NNE 13:56:10 10° E
Okean 1 Rocket 3.5 13:47:45 10° SSW 13:52:03 63° WNW 13:56:21 10° N
Cosmos 1733 2.5 13:50:50 10° NNE 13:52:09 19° ENE 13:53:27 10° SE
Cosmos 44 Rocket 4.4 13:48:07 10° WNW 13:52:32 30° N 13:56:58 10° ENE
Iridium 51 4.2 13:51:30 10° SSE 13:54:27 38° E 13:57:29 10° NNE
Cosmos 292 Rocket 3.8 13:50:41 10° SSW 13:55:30 84° ESE 14:00:19 10° NNE
Sich 1 Rocket 4.2 13:52:33 10° SSW 13:57:01 59° WNW 14:01:29 10° N
Cosmos 1743 3.0 13:54:16 10° N 13:57:14 31° ENE 14:00:11 10° SE
CBERS-1 4.0 13:53:21 10° SSE 13:58:27 77° ENE 14:03:35 10° NNW
CORIOLIS 4.2 13:54:23 10° SE 13:59:35 56° ENE 14:04:49 10° N
Okean 2 Rocket 4.1 13:57:54 10° SW 14:02:06 45° WNW 14:06:20 10° N
Cosmos 2227 Rocket 2.5 13:58:33 10° NNW 14:04:01 46° NE 14:09:28 10° ESE
NOSS 2-2 (D) 4.4 14:03:37 10° S 14:06:02 19° SE 14:07:49 13° E
Cosmos 1626 Rocket 3.5 14:01:52 10° N 14:06:14 68° ENE 14:10:31 10° SSE
MOS 1 Rocket 4.0 14:03:54 10° SE 14:08:28 38° ENE 14:13:16 10° N
Cosmos 724 4.4 14:03:58 10° NW 14:10:07 86° SW 14:16:04 10° SE
Cosmos 2084 3.4 14:06:17 10° SW 14:10:29 79° SE 14:13:57 14° NE
IGS 5A 3.3 14:06:35 10° SSE 14:10:33 80° ENE 14:14:33 10° NNW
Cosmos 2369 Rocket 2.8 14:05:34 10° WSW 14:11:05 53° NW 14:16:41 10° NNE
Cosmos 1943 Rocket 3.8 14:07:41 10° WNW 14:11:50 21° NNW 14:15:59 10° NNE
Cosmos 1900 4.3 14:07:13 10° NW 14:12:19 73° NE 14:17:19 10° SE
Intercosmos 24 3.7 14:08:43 10° N 14:13:00 79° ENE 14:16:34 10° SSE
Thor Agena Rocket 3.5 14:09:37 10° SSE 14:14:49 78° ENE 14:19:59 10° NNW
Cosmos 2084 Rocket 3.4 14:11:55 10° NW 14:16:09 87° SW 14:20:22 10° SE
NOSS 2-2 (E) 4.3 14:17:57 10° S 14:20:28 21° SE 14:21:45 16° E
Cosmos 2278 Rocket 3.9 14:16:51 10° WNW 14:21:06 21° NNW 14:25:22 10° NNE
SJ-12 3.9 14:18:16 10° SE 14:21:54 46° ENE 14:25:33 10° N
BlueWalker 3 4.5 14:19:12 10° W 14:21:56 20° SSW 14:24:40 10° SSE
Meteor 1-28 Rocket 3.0 14:21:22 10° NNE 14:24:37 54° ESE 14:27:54 10° S
Cosmos 1356 Rocket 3.3 14:20:50 10° SSW 14:24:54 88° WNW 14:29:01 10° NNE
Cosmos 1697 Rocket 4.0 14:21:12 10° SE 14:25:09 20° E 14:27:16 16° ENE
IRS-1C 4.1 14:19:58 10° SSE 14:25:14 65° ENE 14:30:32 10° NNW
Cosmos 1634 Rocket 4.0 14:20:37 10° S 14:26:48 84° E 14:33:01 10° NNE
IRIDIUM 104 4.4 14:22:41 10° N 14:27:49 53° E 14:32:55 10° SSE
Cosmos 1655 Rocket 4.4 14:22:04 10° N 14:27:54 38° ENE 14:33:39 10° SE
CZ-2D R/B 4.3 14:24:29 10° ESE 14:28:03 27° ENE 14:31:34 10° N
Cosmos 1544 Rocket 3.7 14:23:59 10° S 14:28:17 55° E 14:32:37 10° NNE
Cosmos 1484 Rocket 3.6 14:28:25 10° S 14:31:50 47° W 14:35:15 10° NNW
CENTAUR R/B 2.7 14:26:04 10° SW 14:32:03 90° SSE 14:38:16 16° NE
Okean 1-7 Rocket 3.7 14:28:14 10° N 14:32:34 50° ENE 14:36:49 10° SSE
Cosmos 405 Rocket 3.5 14:31:48 10° NNW 14:34:57 45° W 14:38:03 10° S
Meteor 1-20 Rocket 4.1 14:31:16 10° NNW 14:36:46 72° ENE 14:42:12 10° SSE
IRIDIUM 114 4.3 14:31:47 10° N 14:37:00 62° E 14:42:10 10° SSE
Lacrosse 5 rocket 1.1 14:37:08 10° WSW 14:40:51 68° SSE 14:42:46 26° E
Cosmos 2279 Rocket 3.9 14:35:18 10° S 14:41:30 78° E 14:47:46 10° NNE
SJ-6F 4.3 14:40:40 10° SSE 14:44:35 58° ENE 14:48:33 10° N
Cosmos 1602 Rocket 3.5 14:40:10 10° NNW 14:44:36 86° ENE 14:48:59 10° SSE
Cosmos 1461 4.1 14:42:20 10° S 14:45:21 21° ESE 14:46:00 21° ESE
SJ 16-02 3.8 14:44:10 10° NW 14:45:41 12° NNW 14:47:13 10° N
IRIDIUM 103 4.2 14:40:57 10° N 14:46:12 72° E 14:51:25 10° SSE
USA 281 4.4 14:43:31 18° ENE 14:46:12 24° NNE 14:51:11 10° NNW
Cosmos 1455 Rocket 4.3 14:42:44 10° SW 14:46:49 40° WNW 14:50:59 10° N
SAR-Lupe-5 4.5 14:47:29 24° NNE 14:49:09 73° ESE 14:52:16 10° S
Cosmos 2082 4.2 14:44:27 10° NNW 14:49:49 39° NE 14:53:17 20° E
NOSS 2-2 (C) 2.5 14:48:01 10° SW 14:51:05 81° SE 14:52:06 38° ENE
Cosmos 1656 3.7 14:46:52 10° SSW 14:52:27 67° ESE 14:56:31 19° NE
ERS-1 4.4 14:47:26 10° SSE 14:52:28 84° ENE 14:57:28 10° NNW
UNK 3.6 14:48:12 10° NNE 14:52:48 68° ESE 14:57:21 10° S
USA 215 3.2 14:48:08 19° E 14:53:08 84° N 14:59:44 10° W
SMAP 3.5 14:48:52 10° S 14:53:30 67° WSW 14:58:10 10° NNW
Cosmos 1867 3.8 14:49:14 10° NW 14:54:41 72° SW 15:00:06 10° SE
Cosmos 2297 Rocket 3.0 14:51:29 10° NW 14:57:01 54° WSW 15:02:30 10° S
Cosmos 1486 Rocket 4.0 14:53:30 10° SSW 14:58:39 63° ESE 15:02:09 21° NE
YAOGAN 1 2.9 14:54:48 10° SE 14:58:48 41° ENE 15:02:50 10° N
Cosmos 2180 Rocket 4.4 14:52:44 10° S 14:58:51 75° E 15:05:02 10° NNE
Landsat 7 3.9 14:54:21 10° S 14:59:00 75° WSW 15:03:41 10° NNW
Cosmos 2228 3.8 14:56:56 10° SSW 15:01:04 49° WNW 15:05:14 10° N
CZ-4C R/B 3.3 14:55:36 10° NW 15:02:08 64° SW 15:10:22 10° SSE
SAR-Lupe-4 4.0 14:59:50 10° S 15:03:22 64° WSW 15:06:56 10° NNW
IRIDIUM 106 4.3 14:59:17 10° N 15:04:32 86° W 15:09:46 10° S
USA 290 4.2 15:03:22 10° NW 15:06:19 32° WSW 15:09:16 10° S
Cosmos 1953 Rocket 3.7 15:03:07 10° N 15:07:28 50° ENE 15:11:48 10° SSE
Resurs 01 Rocket 3.1 15:10:12 21° NNE 15:10:12 21° NNE 15:12:12 10° N
SJ-7 4.3 15:10:03 33° ESE 15:11:16 47° ENE 15:14:54 10° N
Meteor 1-25 Rocket 4.3 15:05:59 10° NNW 15:11:52 85° W 15:17:40 10° S
Cosmos 2266 Rocket 4.1 15:06:48 10° NNW 15:13:00 76° W 15:19:04 10° S
BREEZE-M DEB (TANK) 4.0 15:10:27 10° WSW 15:13:29 38° S 15:19:46 14° ESE
Cosmos 1782 3.1 15:10:01 10° SSW 15:13:34 56° WNW 15:16:25 15° N
USA 81 4.2 15:08:46 10° N 15:13:53 47° ENE 15:18:58 10° SSE
ATLAS CENTAUR R/B 4.0 15:12:06 10° W 15:13:57 14° WSW 15:15:46 10° SSW
Cosmos 2219 3.3 15:08:18 10° NNW 15:13:58 57° NE 15:17:39 22° ESE
IRS-P3 4.2 15:09:45 10° SSE 15:15:05 78° WSW 15:20:26 10° NNW
ARIANE 5 R/B 3.2 15:12:51 10° S 15:17:49 56° WSW 15:22:54 10° NNW
Cosmos 1825 Rocket 3.5 15:14:01 10° NNW 15:18:24 86° W 15:22:44 10° S
Cosmos 990 Rocket 4.4 15:14:08 10° S 15:18:54 41° ESE 15:19:48 37° E
Meteor 1-5 Rocket 4.0 15:14:21 10° NNW 15:19:42 79° ENE 15:25:07 10° SSE
CZ-2D R/B 4.1 15:17:28 10° S 15:20:28 40° W 15:23:29 10° NNW
Lacrosse 4 Rocket 2.6 15:18:15 10° W 15:21:58 34° NW 15:23:35 24° N
NOAA 6 4.1 15:17:23 10° SE 15:22:20 53° ENE 15:27:18 10° N
Cosmos 1680 Rocket 4.1 15:19:04 10° NNW 15:23:51 35° NE 15:23:59 35° NE
Cosmos 2151 4.3 15:22:52 10° NNW 15:26:47 41° W 15:30:42 10° SSW
Cosmos 2098 Rocket 3.7 15:22:59 10° SSW 15:27:11 58° WNW 15:32:08 10° N
Cosmos 1980 Rocket 3.3 15:22:46 10° SSE 15:26:13 25° SE 15:26:13 25° SE
SPOT 1/Viking Rocket 3.5 15:22:13 10° SSE 15:27:27 87° WSW 15:32:42 10° NNW
SL-16 R/B 3.3 15:22:23 10° NNE 15:28:25 52° WNW 15:34:24 10° SW
Cosmos 1844 Rocket 3.3 15:23:42 10° NNW 15:28:51 35° NE 15:29:20 34° NE
NOSS 3-2 (C) 3.3 15:28:46 10° SSW 15:33:52 58° SE 15:35:37 42° ENE
NOSS 3-2 (A) 3.3 15:28:38 10° SW 15:33:58 84° NW 15:36:44 35° NE
Cosmos 44 Rocket 3.8 15:30:11 10° NW 15:35:02 42° NNE 15:35:34 41° NE
Cosmos 2263 Rocket 2.2 15:30:00 10° NW 15:35:42 87° WSW 15:41:20 10° SSE
GEOS 3 Rocket 3.6 15:38:33 40° NE 15:40:36 87° NNW 15:46:01 10° SW
Cosmos 1076 Rocket 3.7 15:43:50 10° NNW 15:48:08 69° W 15:52:24 10° S
Cosmos 2227 Rocket 3.1 15:42:43 10° NW 15:48:10 49° WSW 15:53:33 10° S
Cosmos 2084 4.2 15:45:30 10° W 15:49:26 39° NNW 15:49:40 39° N
Cosmos 1745 Rocket 4.4 15:43:47 10° N 15:48:46 39° NE 15:48:46 39° NE
Cosmos 1538 Rocket 4.1 15:45:26 10° NNW 15:50:43 76° WSW 15:55:59 10° SSE
Cosmos 2360 4.3 15:47:16 10° SW 15:52:59 73° NW 15:55:24 36° NNE
NOSS 2-2 (D) 4.2 15:51:51 10° WSW 15:53:56 36° W 15:53:56 36° W
Cosmos 1244 Rocket 4.4 15:48:51 10° N 15:55:12 77° ENE 16:01:26 10° SSE
Cosmos 1933 3.7 15:51:28 10° SSW 15:55:15 59° WNW 15:55:44 53° NW
Cosmos 2369 Rocket 4.0 15:51:58 10° WNW 15:56:24 23° NNW 15:58:46 18° NNE
Cosmos 1606 Rocket 3.8 15:52:22 10° SSW 15:56:46 68° WNW 15:58:23 38° N
Cosmos 1943 Rocket 3.9 15:53:55 10° NW 15:57:38 18° N 15:57:50 18° N
SL-19 R/B 4.4 15:53:58 10° SSE 15:59:22 75° WSW 16:05:07 10° NNW
COSMO-SKYMED 1 4.2 16:02:54 23° S 16:02:54 23° S 16:04:30 10° S
PSLV R/B 3.7 15:59:49 30° S 16:01:39 65° WSW 16:05:43 10° NNW
CZ-2D R/B 4.4 15:58:43 10° S 16:02:48 48° W 16:06:51 10° NNW
Cosmos 1503 Rocket 4.2 15:59:06 10° SW 16:04:19 69° WNW 16:05:55 44° N
Meteor 2-20 4.3 15:59:11 10° S 16:05:21 84° ESE 16:10:01 19° NNE
Resurs 1-3 4.1 16:01:29 10° S 16:05:43 57° W 16:10:00 10° NNW
Cosmos 2278 Rocket 3.9 16:03:20 10° NW 16:07:16 19° N 16:07:16 19° N
Cosmos 1697 Rocket 2.5 16:02:42 10° SSW 16:08:19 84° ESE 16:09:00 70° NE
Cosmos 1354 Rocket 4.0 16:07:13 10° SSW 16:12:30 79° WNW 16:13:14 65° N
SL-08 R/B 4.4 16:07:14 10° N 16:13:36 85° E 16:19:58 10° SSE
Lacrosse 5 rocket 2.7 16:14:12 10° W 16:16:22 33° W 16:16:22 33° W
Cosmos 1386 Rocket 4.2 16:14:13 10° N 16:20:16 75° ENE 16:20:16 75° ENE
Cosmos 1461 4.2 16:17:48 10° SW 16:20:09 35° WSW 16:20:09 35° WSW
SKYMED 2 4.1 16:22:23 56° W 16:22:23 56° W 16:26:15 10° SSW
Cosmos 1726 Rocket 4.3 16:17:36 10° SSW 16:22:10 54° WNW 16:22:51 49° NW
CENTAUR R/B 3.3 16:16:58 10° W 16:23:24 52° N 16:25:22 43° NNE
Cosmos 1844 4.2 16:21:16 10° NNW 16:25:30 46° N 16:25:30 46° N
Meteor 2-20 Rocket 4.3 16:21:17 10° S 16:27:31 87° E 16:28:21 68° NNE
USA 281 3.5 16:30:23 50° NNE 16:30:23 50° NNE 16:35:56 10° NNW
Cosmos 923 Rocket 4.2 16:27:46 10° NNW 16:32:21 65° WNW 16:32:21 65° WNW
USA 238 DEB 4.1 16:28:04 10° SSW 16:32:29 44° S 16:32:29 44° S
USA 238 4.1 16:28:11 10° SSW 16:32:34 43° S 16:32:34 43° S
Cosmos 2082 4.0 16:28:35 10° NW 16:34:15 64° WSW 16:35:10 55° SSW
YAOGAN 1 4.3 16:30:58 10° SSW 16:34:46 31° W 16:38:37 10° NNW
USA 215 3.2 16:35:28 67° SSE 16:36:18 76° SSW 16:42:54 10° WNW
Resurs 01 Rocket 3.8 16:47:36 19° NNW 16:47:36 19° NNW 16:48:59 10° NNW
Cosmos 2219 4.4 16:52:41 10° NW 16:57:58 39° WSW 16:59:37 32° SW
Lacrosse 4 Rocket 4.2 16:58:16 10° NW 16:59:05 13° NW 16:59:05 13° NW
Cosmos 1980 Rocket 3.6 17:05:12 10° SW 17:08:01 30° SW 17:08:01 30° SW
Cosmos 1844 Rocket 3.9 17:07:35 10° NW 17:10:58 38° NW 17:10:58 38° NW
Cosmos 2263 Rocket 4.4 17:14:46 10° NW 17:18:53 21° WSW 17:23:02 10° SSW
NOSS 3-2 (C) 4.4 17:19:18 10° WSW 17:23:02 42° WNW 17:23:02 42° WNW
NOSS 3-2 (A) 4.4 17:19:52 10° W 17:24:05 41° NW 17:24:05 41° NW
CENTAUR R/B 4.1 18:08:14 10° WNW 18:12:27 37° NW 18:12:27 37° NW
